^^
Your Local Weather - Clay, NY Station Historical Data
Daily Summary for January 6, 2017 Units:  English    Metric   Both
« Previous Day
Next Day »
Daily Weekly Monthly Yearly Custom
  High: Low: Average:
Temperature: 21.3 °F 9.5 °F 17 °F
Dew Point: 15.5 °F 3.3 °F 6.8 °F
Humidity: 83% 47% 65%
Wind Speed: 6.0mph 0.0mph 2.5mph
Wind Gust: 10.0mph - -
Wind- - WSW
Pressure: 30.28 in 29.90 in -
Precipitation: 0.00 in    
Historical Graphs
 
 
Tabular Data for January 6, 2017
Time Temperature Dew Point Pressure Wind Wind Speed Wind Gust Humidity Rainfall Rate (Hourly) solar
00:00 19.8 °F 15.5 °F 29.90 in NW 1.0 mph 1.0 mph 83% 0.00 in 0 W/m2
00:06 19.8 °F 15.2 °F 29.90 in SW 1.0 mph 1.0 mph 82% 0.00 in 0 W/m2
00:12 19.7 °F 15.1 °F 29.91 in SW 1.0 mph 3.0 mph 82% 0.00 in 0 W/m2
00:18 19.9 °F 15.0 °F 29.91 in SW 1.0 mph 3.0 mph 81% 0.00 in 0 W/m2
00:26 20.1 °F 14.9 °F 29.91 in WSW 1.0 mph 3.0 mph 80% 0.00 in 0 W/m2
00:32 20.1 °F 14.9 °F 29.91 in WNW 1.0 mph 5.0 mph 80% 0.00 in 0 W/m2
00:38 20.1 °F 14.6 °F 29.91 in WSW 2.0 mph 5.0 mph 79% 0.00 in 0 W/m2
00:44 20.2 °F 14.7 °F 29.91 in SW 2.0 mph 2.0 mph 79% 0.00 in 0 W/m2
00:50 20.2 °F 14.4 °F 29.91 in WSW 2.0 mph 2.0 mph 78% 0.00 in 0 W/m2
00:56 20.1 °F 14.3 °F 29.91 in WSW 2.0 mph 3.0 mph 78% 0.00 in 0 W/m2
01:02 20.1 °F 14.3 °F 29.91 in West 2.0 mph 5.0 mph 78% 0.00 in 0 W/m2
01:08 20.0 °F 14.2 °F 29.91 in WSW 2.0 mph 5.0 mph 78% 0.00 in 0 W/m2
01:14 19.9 °F 14.1 °F 29.91 in WSW 2.0 mph 2.0 mph 78% 0.00 in 0 W/m2
01:20 19.7 °F 14.0 °F 29.91 in SW 2.0 mph 4.0 mph 78% 0.00 in 0 W/m2
01:26 19.6 °F 13.9 °F 29.91 in WSW 2.0 mph 4.0 mph 78% 0.00 in 0 W/m2
01:32 19.4 °F 13.7 °F 29.91 in WSW 2.0 mph 2.0 mph 78% 0.00 in 0 W/m2
01:38 19.3 °F 13.6 °F 29.92 in WNW 2.0 mph 5.0 mph 78% 0.00 in 0 W/m2
01:44 19.2 °F 13.5 °F 29.92 in WNW 2.0 mph 2.0 mph 78% 0.00 in 0 W/m2
01:50 19.1 °F 13.4 °F 29.92 in WSW 1.0 mph 3.0 mph 78% 0.00 in 0 W/m2
01:56 19.1 °F 13.4 °F 29.92 in WSW 2.0 mph 4.0 mph 78% 0.00 in 0 W/m2
02:02 19.3 °F 13.3 °F 29.93 in West 3.0 mph 4.0 mph 77% 0.00 in 0 W/m2
02:08 19.7 °F 13.4 °F 29.93 in West 3.0 mph 7.0 mph 76% 0.00 in 0 W/m2
02:14 19.7 °F 13.4 °F 29.94 in West 3.0 mph 4.0 mph 76% 0.00 in 0 W/m2
02:20 19.7 °F 13.1 °F 29.94 in West 2.0 mph 5.0 mph 75% 0.00 in 0 W/m2
02:26 19.5 °F 12.6 °F 29.94 in West 2.0 mph 5.0 mph 74% 0.00 in 0 W/m2
02:32 19.2 °F 12.3 °F 29.94 in West 3.0 mph 7.0 mph 74% 0.00 in 0 W/m2
02:38 19.0 °F 12.1 °F 29.94 in West 3.0 mph 7.0 mph 74% 0.00 in 0 W/m2
02:44 18.8 °F 11.9 °F 29.94 in West 3.0 mph 3.0 mph 74% 0.00 in 0 W/m2
02:50 18.7 °F 11.8 °F 29.95 in West 3.0 mph 3.0 mph 74% 0.00 in 0 W/m2
02:56 18.5 °F 11.6 °F 29.95 in WSW 3.0 mph 6.0 mph 74% 0.00 in 0 W/m2
03:02 18.3 °F 11.1 °F 29.95 in NW 3.0 mph 3.0 mph 73% 0.00 in 0 W/m2
03:08 18.1 °F 10.9 °F 29.94 in West 2.0 mph 5.0 mph 73% 0.00 in 0 W/m2
03:14 18.0 °F 10.8 °F 29.95 in WSW 3.0 mph 3.0 mph 73% 0.00 in 0 W/m2
03:20 17.9 °F 10.4 °F 29.94 in WSW 3.0 mph 3.0 mph 72% 0.00 in 0 W/m2
03:26 17.8 °F 10.3 °F 29.95 in West 2.0 mph 3.0 mph 72% 0.00 in 0 W/m2
03:32 17.7 °F 9.9 °F 29.94 in West 2.0 mph 2.0 mph 71% 0.00 in 0 W/m2
03:38 17.7 °F 9.6 °F 29.95 in WSW 2.0 mph 3.0 mph 70% 0.00 in 0 W/m2
03:44 17.5 °F 9.4 °F 29.95 in WNW 2.0 mph 3.0 mph 70% 0.00 in 0 W/m2
03:50 17.4 °F 9.3 °F 29.96 in West 1.0 mph 4.0 mph 70% 0.00 in 0 W/m2
03:56 17.3 °F 9.2 °F 29.96 in West 1.0 mph 4.0 mph 70% 0.00 in 0 W/m2
04:02 17.1 °F 9.3 °F 29.96 in WSW 1.0 mph 1.0 mph 71% 0.00 in 0 W/m2
04:08 16.9 °F 9.1 °F 29.96 in West 1.0 mph 3.0 mph 71% 0.00 in 0 W/m2
04:14 16.9 °F 9.1 °F 29.96 in WSW 1.0 mph 1.0 mph 71% 0.00 in 0 W/m2
04:26 16.8 °F 8.7 °F 29.96 in SW 1.0 mph 4.0 mph 70% 0.00 in 0 W/m2
04:32 16.8 °F 8.7 °F 29.96 in WSW 1.0 mph 1.0 mph 70% 0.00 in 0 W/m2
04:38 16.8 °F 8.7 °F 29.96 in West 2.0 mph 4.0 mph 70% 0.00 in 0 W/m2
04:44 16.6 °F 8.8 °F 29.96 in SW 2.0 mph 2.0 mph 71% 0.00 in 0 W/m2
04:50 16.5 °F 8.7 °F 29.96 in West 2.0 mph 2.0 mph 71% 0.00 in 0 W/m2
04:56 16.5 °F 8.7 °F 29.97 in West 2.0 mph 5.0 mph 71% 0.00 in 0 W/m2
05:02 16.4 °F 8.9 °F 29.97 in West 2.0 mph 3.0 mph 72% 0.00 in 0 W/m2
05:08 16.3 °F 8.9 °F 29.97 in WSW 2.0 mph 4.0 mph 72% 0.00 in 0 W/m2
05:14 16.2 °F 8.8 °F 29.97 in WSW 2.0 mph 2.0 mph 72% 0.00 in 0 W/m2
05:20 16.1 °F 9.0 °F 29.98 in SW 2.0 mph 4.0 mph 73% 0.00 in 0 W/m2
05:26 16.0 °F 8.9 °F 29.98 in WSW 2.0 mph 5.0 mph 73% 0.00 in 0 W/m2
05:32 16.2 °F 9.1 °F 29.99 in West 2.0 mph 3.0 mph 73% 0.00 in 0 W/m2
05:38 16.1 °F 9.0 °F 29.99 in WSW 2.0 mph 3.0 mph 73% 0.00 in 0 W/m2
05:44 16.1 °F 9.0 °F 29.99 in West 2.0 mph 5.0 mph 73% 0.00 in 0 W/m2
05:50 16.0 °F 8.6 °F 29.99 in West 2.0 mph 4.0 mph 72% 0.00 in 0 W/m2
05:56 15.7 °F 8.6 °F 29.99 in West 2.0 mph 4.0 mph 73% 0.00 in 0 W/m2
06:02 15.4 °F 8.3 °F 29.99 in SW 2.0 mph 2.0 mph 73% 0.00 in 0 W/m2
06:08 15.2 °F 8.1 °F 29.99 in WSW 2.0 mph 4.0 mph 73% 0.00 in 0 W/m2
06:14 15.0 °F 7.9 °F 29.99 in WSW 2.0 mph 2.0 mph 73% 0.00 in 0 W/m2
06:20 14.9 °F 7.5 °F 29.99 in West 2.0 mph 2.0 mph 72% 0.00 in 0 W/m2
06:26 14.6 °F 7.5 °F 29.99 in SW 2.0 mph 3.0 mph 73% 0.00 in 0 W/m2
06:32 14.6 °F 7.5 °F 29.99 in SSW 3.0 mph 3.0 mph 73% 0.00 in 0 W/m2
06:38 14.4 °F 7.3 °F 30.00 in SW 3.0 mph 3.0 mph 73% 0.00 in 0 W/m2
06:44 14.2 °F 7.1 °F 30.00 in SSW 3.0 mph 6.0 mph 73% 0.00 in 0 W/m2
06:50 14.0 °F 6.9 °F 30.00 in WSW 3.0 mph 3.0 mph 73% 0.00 in 0 W/m2
06:56 13.9 °F 6.5 °F 30.00 in WSW 3.0 mph 3.0 mph 72% 0.00 in 0 W/m2
07:02 13.8 °F 6.7 °F 30.01 in West 3.0 mph 3.0 mph 73% 0.00 in 0 W/m2
07:08 13.6 °F 6.5 °F 30.01 in SW 2.0 mph 3.0 mph 73% 0.00 in 0 W/m2
07:14 13.6 °F 6.2 °F 30.01 in SW 3.0 mph 3.0 mph 72% 0.00 in 0 W/m2
07:20 13.3 °F 6.0 °F 30.01 in SSE 2.0 mph 4.0 mph 72% 0.00 in 0 W/m2
07:28 13.2 °F 5.9 °F 30.02 in WSW 2.0 mph 7.0 mph 72% 0.00 in 0 W/m2
07:34 13.2 °F 5.2 °F 30.02 in WSW 3.0 mph 6.0 mph 70% 0.00 in 0 W/m2
07:40 13.1 °F 5.1 °F 30.02 in WSW 2.0 mph 2.0 mph 70% 0.00 in 5 W/m2
07:46 13.0 °F 5.0 °F 30.02 in West 2.0 mph 2.0 mph 70% 0.00 in 7 W/m2
07:52 12.8 °F 4.9 °F 30.02 in SW 2.0 mph 3.0 mph 70% 0.00 in 9 W/m2
07:58 12.9 °F 4.6 °F 30.02 in WSW 2.0 mph 3.0 mph 69% 0.00 in 11 W/m2
08:04 12.9 °F 4.6 °F 30.02 in WSW 2.0 mph 3.0 mph 69% 0.00 in 14 W/m2
08:10 13.0 °F 4.4 °F 30.02 in West 3.0 mph 3.0 mph 68% 0.00 in 16 W/m2
08:16 13.2 °F 4.3 °F 30.03 in West 3.0 mph 4.0 mph 67% 0.00 in 19 W/m2
08:22 13.4 °F 4.1 °F 30.04 in SW 4.0 mph 8.0 mph 66% 0.00 in 25 W/m2
08:28 13.7 °F 4.1 °F 30.04 in West 4.0 mph 8.0 mph 65% 0.00 in 127 W/m2
08:34 14.0 °F 4.1 °F 30.04 in West 3.0 mph 5.0 mph 64% 0.00 in 218 W/m2
08:40 14.6 °F 3.9 °F 30.04 in WNW 2.0 mph 2.0 mph 62% 0.00 in 241 W/m2
08:46 15.1 °F 3.3 °F 30.05 in WSW 3.0 mph 5.0 mph 59% 0.00 in 169 W/m2
08:52 15.4 °F 3.6 °F 30.06 in WNW 4.0 mph 7.0 mph 59% 0.00 in 186 W/m2
08:58 15.7 °F 3.9 °F 30.06 in SW 4.0 mph 7.0 mph 59% 0.00 in 202 W/m2
09:04 16.1 °F 4.3 °F 30.07 in WNW 4.0 mph 7.0 mph 59% 0.00 in 213 W/m2
09:10 16.4 °F 4.2 °F 30.07 in West 3.0 mph 6.0 mph 58% 0.00 in 227 W/m2
09:16 16.5 °F 4.3 °F 30.07 in WNW 4.0 mph 7.0 mph 58% 0.00 in 241 W/m2
09:22 17.1 °F 4.5 °F 30.07 in West 4.0 mph 4.0 mph 57% 0.00 in 253 W/m2
09:28 17.2 °F 4.6 °F 30.07 in SW 5.0 mph 5.0 mph 57% 0.00 in 265 W/m2
09:34 17.5 °F 5.2 °F 30.07 in WNW 4.0 mph 5.0 mph 58% 0.00 in 276 W/m2
09:40 17.4 °F 4.7 °F 30.07 in WSW 4.0 mph 4.0 mph 57% 0.00 in 288 W/m2
09:46 18.0 °F 5.3 °F 30.07 in West 4.0 mph 5.0 mph 57% 0.00 in 301 W/m2
09:52 18.6 °F 5.1 °F 30.07 in West 3.0 mph 3.0 mph 55% 0.00 in 315 W/m2
09:58 18.2 °F 4.3 °F 30.08 in West 4.0 mph 8.0 mph 54% 0.00 in 325 W/m2
10:04 18.4 °F 4.9 °F 30.08 in West 6.0 mph 6.0 mph 55% 0.00 in 334 W/m2
10:10 18.7 °F 5.2 °F 30.09 in West 4.0 mph 4.0 mph 55% 0.00 in 345 W/m2
10:16 18.8 °F 5.7 °F 30.10 in WSW 4.0 mph 4.0 mph 56% 0.00 in 352 W/m2
10:22 18.6 °F 5.5 °F 30.10 in West 5.0 mph 6.0 mph 56% 0.00 in 364 W/m2
10:28 18.6 °F 5.9 °F 30.10 in SW 5.0 mph 6.0 mph 57% 0.00 in 373 W/m2
10:34 18.6 °F 5.9 °F 30.09 in SW 5.0 mph 9.0 mph 57% 0.00 in 380 W/m2
10:40 19.0 °F 6.6 °F 30.09 in West 5.0 mph 6.0 mph 58% 0.00 in 388 W/m2
10:46 19.3 °F 6.5 °F 30.10 in SW 4.0 mph 6.0 mph 57% 0.00 in 394 W/m2
10:52 18.9 °F 6.5 °F 30.10 in SW 5.0 mph 9.0 mph 58% 0.00 in 404 W/m2
10:58 19.0 °F 6.3 °F 30.10 in SSW 5.0 mph 9.0 mph 57% 0.00 in 410 W/m2
11:06 19.1 °F 6.0 °F 30.10 in SW 5.0 mph 10.0 mph 56% 0.00 in 413 W/m2
11:12 19.5 °F 6.7 °F 30.10 in SSW 5.0 mph 8.0 mph 57% 0.00 in 418 W/m2
11:18 19.7 °F 6.5 °F 30.11 in WSW 5.0 mph 8.0 mph 56% 0.00 in 427 W/m2
11:24 19.4 °F 5.8 °F 30.10 in West 5.0 mph 5.0 mph 55% 0.00 in 431 W/m2
11:30 19.6 °F 6.4 °F 30.10 in SW 5.0 mph 8.0 mph 56% 0.00 in 434 W/m2
11:36 19.8 °F 6.2 °F 30.10 in WSW 5.0 mph 8.0 mph 55% 0.00 in 439 W/m2
11:42 20.1 °F 5.7 °F 30.10 in West 4.0 mph 5.0 mph 53% 0.00 in 439 W/m2
11:48 20.3 °F 5.9 °F 30.08 in WSW 5.0 mph 7.0 mph 53% 0.00 in 445 W/m2
11:54 20.1 °F 6.1 °F 30.08 in SW 5.0 mph 5.0 mph 54% 0.00 in 448 W/m2
12:00 20.4 °F 5.5 °F 30.09 in WSW 4.0 mph 9.0 mph 52% 0.00 in 448 W/m2
12:06 20.1 °F 4.8 °F 30.09 in West 5.0 mph 9.0 mph 51% 0.00 in 450 W/m2
12:12 20.0 °F 4.7 °F 30.10 in WSW 6.0 mph 10.0 mph 51% 0.00 in 450 W/m2
12:18 20.1 °F 5.3 °F 30.09 in WSW 6.0 mph 10.0 mph 52% 0.00 in 448 W/m2
12:26 20.8 °F 5.1 °F 30.09 in WSW 5.0 mph 6.0 mph 50% 0.00 in 448 W/m2
12:32 20.3 °F 4.6 °F 30.08 in WSW 6.0 mph 6.0 mph 50% 0.00 in 443 W/m2
12:38 21.1 °F 5.3 °F 30.08 in WNW 5.0 mph 7.0 mph 50% 0.00 in 445 W/m2
12:44 21.1 °F 5.3 °F 30.08 in West 4.0 mph 5.0 mph 50% 0.00 in 439 W/m2
12:50 21.1 °F 5.8 °F 30.08 in West 4.0 mph 4.0 mph 51% 0.00 in 438 W/m2
12:56 20.9 °F 5.2 °F 30.09 in WSW 5.0 mph 8.0 mph 50% 0.00 in 432 W/m2
13:03 20.8 °F 5.1 °F 30.10 in SW 5.0 mph 5.0 mph 50% 0.00 in 427 W/m2
13:08 21.2 °F 5.9 °F 30.10 in SSW 5.0 mph 7.0 mph 51% 0.00 in 429 W/m2
13:14 21.3 °F 6.0 °F 30.10 in SSE 5.0 mph 6.0 mph 51% 0.00 in 420 W/m2
13:20 21.1 °F 5.8 °F 30.10 in West 5.0 mph 7.0 mph 51% 0.00 in 411 W/m2
13:26 21.1 °F 5.8 °F 30.10 in WSW 5.0 mph 7.0 mph 51% 0.00 in 406 W/m2
13:32 20.9 °F 5.2 °F 30.09 in WSW 5.0 mph 5.0 mph 50% 0.00 in 403 W/m2
13:38 21.3 °F 5.1 °F 30.09 in SSW 5.0 mph 7.0 mph 49% 0.00 in 396 W/m2
13:44 21.3 °F 4.6 °F 30.10 in WSW 4.0 mph 9.0 mph 48% 0.00 in 390 W/m2
13:50 20.8 °F 5.1 °F 30.09 in WSW 5.0 mph 8.0 mph 50% 0.00 in 381 W/m2
14:02 21.1 °F 4.9 °F 30.10 in WSW 5.0 mph 7.0 mph 49% 0.00 in 362 W/m2
14:08 21.1 °F 5.3 °F 30.10 in WNW 5.0 mph 7.0 mph 50% 0.00 in 352 W/m2
14:14 20.7 °F 4.1 °F 30.10 in West 6.0 mph 8.0 mph 48% 0.00 in 345 W/m2
14:20 20.8 °F 4.2 °F 30.10 in WSW 6.0 mph 6.0 mph 48% 0.00 in 332 W/m2
14:26 20.7 °F 4.1 °F 30.10 in West 5.0 mph 7.0 mph 48% 0.00 in 323 W/m2
14:32 20.8 °F 3.7 °F 30.10 in WSW 6.0 mph 7.0 mph 47% 0.00 in 311 W/m2
14:38 21.0 °F 4.4 °F 30.11 in West 5.0 mph 9.0 mph 48% 0.00 in 299 W/m2
14:44 20.9 °F 4.7 °F 30.10 in West 5.0 mph 5.0 mph 49% 0.00 in 288 W/m2
14:50 21.3 °F 4.2 °F 30.11 in West 4.0 mph 7.0 mph 47% 0.00 in 274 W/m2
14:56 21.2 °F 4.5 °F 30.10 in WSW 3.0 mph 7.0 mph 48% 0.00 in 262 W/m2
15:02 21.2 °F 4.1 °F 30.10 in WSW 4.0 mph 5.0 mph 47% 0.00 in 250 W/m2
15:08 20.9 °F 4.3 °F 30.10 in WNW 4.0 mph 6.0 mph 48% 0.00 in 237 W/m2
15:14 21.2 °F 5.0 °F 30.10 in WSW 4.0 mph 5.0 mph 49% 0.00 in 225 W/m2
15:20 21.2 °F 4.5 °F 30.10 in WSW 3.0 mph 4.0 mph 48% 0.00 in 211 W/m2
15:26 20.8 °F 3.7 °F 30.11 in West 4.0 mph 6.0 mph 47% 0.00 in 197 W/m2
15:32 21.0 °F 4.8 °F 30.11 in WNW 4.0 mph 7.0 mph 49% 0.00 in 181 W/m2
15:38 20.6 °F 4.4 °F 30.12 in WSW 5.0 mph 7.0 mph 49% 0.00 in 165 W/m2
15:44 20.5 °F 4.3 °F 30.12 in West 5.0 mph 5.0 mph 49% 0.00 in 151 W/m2
15:50 20.5 °F 4.8 °F 30.12 in West 4.0 mph 4.0 mph 50% 0.00 in 63 W/m2
15:56 20.2 °F 4.5 °F 30.12 in WSW 3.0 mph 4.0 mph 50% 0.00 in 35 W/m2
16:02 19.9 °F 3.8 °F 30.13 in South 4.0 mph 6.0 mph 49% 0.00 in 25 W/m2
16:08 19.7 °F 4.5 °F 30.13 in SW 5.0 mph 7.0 mph 51% 0.00 in 26 W/m2
16:14 19.6 °F 4.4 °F 30.13 in WSW 4.0 mph 5.0 mph 51% 0.00 in 47 W/m2
16:20 19.6 °F 4.4 °F 30.13 in WSW 4.0 mph 4.0 mph 51% 0.00 in 16 W/m2
16:26 19.4 °F 4.2 °F 30.13 in WSW 4.0 mph 7.0 mph 51% 0.00 in 14 W/m2
16:32 19.1 °F 4.3 °F 30.14 in West 4.0 mph 5.0 mph 52% 0.00 in 11 W/m2
16:38 19.0 °F 4.7 °F 30.14 in West 3.0 mph 5.0 mph 53% 0.00 in 7 W/m2
16:44 18.8 °F 4.5 °F 30.14 in WSW 2.0 mph 6.0 mph 53% 0.00 in 5 W/m2
16:50 18.6 °F 4.7 °F 30.14 in West 2.0 mph 3.0 mph 54% 0.00 in 0 W/m2
16:56 18.4 °F 4.1 °F 30.15 in West 2.0 mph 7.0 mph 53% 0.00 in 0 W/m2
17:02 18.2 °F 4.7 °F 30.15 in WSW 2.0 mph 2.0 mph 55% 0.00 in 0 W/m2
17:08 18.1 °F 5.0 °F 30.15 in West 2.0 mph 3.0 mph 56% 0.00 in 0 W/m2
17:14 17.9 °F 4.8 °F 30.16 in West 3.0 mph 5.0 mph 56% 0.00 in 0 W/m2
17:20 17.8 °F 5.1 °F 30.16 in WSW 2.0 mph 2.0 mph 57% 0.00 in 0 W/m2
17:26 17.7 °F 5.0 °F 30.16 in WSW 1.0 mph 3.0 mph 57% 0.00 in 0 W/m2
17:32 17.6 °F 4.9 °F 30.17 in WSW 1.0 mph 2.0 mph 57% 0.00 in 0 W/m2
17:38 17.4 °F 5.1 °F 30.17 in WSW 1.0 mph 2.0 mph 58% 0.00 in 0 W/m2
17:44 17.4 °F 5.1 °F 30.18 in WSW 2.0 mph 4.0 mph 58% 0.00 in 0 W/m2
17:50 17.3 °F 5.4 °F 30.18 in WSW 1.0 mph 2.0 mph 59% 0.00 in 0 W/m2
17:56 17.2 °F 5.3 °F 30.18 in WSW 1.0 mph 5.0 mph 59% 0.00 in 0 W/m2
18:02 17.1 °F 5.2 °F 30.18 in WSW 1.0 mph 1.0 mph 59% 0.00 in 0 W/m2
18:08 16.9 °F 5.0 °F 30.18 in Calm   1.0 mph 59% 0.00 in 0 W/m2
18:14 16.9 °F 5.0 °F 30.18 in WSW 1.0 mph 6.0 mph 59% 0.00 in 0 W/m2
18:20 16.9 °F 4.7 °F 30.18 in West 1.0 mph 2.0 mph 58% 0.00 in 0 W/m2
18:26 17.1 °F 4.8 °F 30.19 in West 2.0 mph 2.0 mph 58% 0.00 in 0 W/m2
18:32 17.0 °F 4.7 °F 30.19 in West 1.0 mph 1.0 mph 58% 0.00 in 0 W/m2
18:44 16.8 °F 4.9 °F 30.21 in WSW 1.0 mph 4.0 mph 59% 0.00 in 0 W/m2
18:50 16.8 °F 5.3 °F 30.21 in West 2.0 mph 2.0 mph 60% 0.00 in 0 W/m2
18:56 16.8 °F 5.3 °F 30.21 in WSW 1.0 mph 3.0 mph 60% 0.00 in 0 W/m2
19:02 17.1 °F 5.2 °F 30.21 in WSW 2.0 mph 2.0 mph 59% 0.00 in 0 W/m2
19:08 17.2 °F 5.3 °F 30.21 in WNW 2.0 mph 2.0 mph 59% 0.00 in 0 W/m2
19:14 17.2 °F 5.3 °F 30.22 in WNW 2.0 mph 3.0 mph 59% 0.00 in 0 W/m2
19:20 17.1 °F 5.2 °F 30.22 in West 2.0 mph 2.0 mph 59% 0.00 in 0 W/m2
19:26 17.0 °F 5.1 °F 30.23 in West 1.0 mph 3.0 mph 59% 0.00 in 0 W/m2
19:32 17.0 °F 5.1 °F 30.23 in West 1.0 mph 2.0 mph 59% 0.00 in 0 W/m2
19:38 16.9 °F 5.4 °F 30.23 in West 1.0 mph 2.0 mph 60% 0.00 in 0 W/m2
19:44 16.8 °F 5.3 °F 30.23 in West 1.0 mph 2.0 mph 60% 0.00 in 0 W/m2
19:50 16.7 °F 5.2 °F 30.24 in SW 1.0 mph 2.0 mph 60% 0.00 in 0 W/m2
19:56 16.6 °F 5.5 °F 30.24 in WSW 1.0 mph 2.0 mph 61% 0.00 in 0 W/m2
20:02 16.3 °F 5.2 °F 30.24 in Calm   1.0 mph 61% 0.00 in 0 W/m2
20:08 15.9 °F 5.2 °F 30.24 in Calm   2.0 mph 62% 0.00 in 0 W/m2
20:14 15.5 °F 5.1 °F 30.24 in Calm     63% 0.00 in 0 W/m2
20:20 14.8 °F 5.2 °F 30.24 in Calm     65% 0.00 in 0 W/m2
20:26 14.2 °F 5.6 °F 30.24 in Calm     68% 0.00 in 0 W/m2
20:32 13.7 °F 5.4 °F 30.24 in Calm     69% 0.00 in 0 W/m2
20:38 13.1 °F 5.1 °F 30.25 in Calm     70% 0.00 in 0 W/m2
20:44 12.7 °F 5.4 °F 30.25 in Calm     72% 0.00 in 0 W/m2
20:50 12.4 °F 5.1 °F 30.25 in Calm     72% 0.00 in 0 W/m2
20:56 12.1 °F 5.1 °F 30.25 in Calm     73% 0.00 in 0 W/m2
21:02 11.8 °F 5.1 °F 30.25 in Calm     74% 0.00 in 0 W/m2
21:08 11.7 °F 5.3 °F 30.25 in Calm     75% 0.00 in 0 W/m2
21:14 11.6 °F 5.2 °F 30.25 in Calm     75% 0.00 in 0 W/m2
21:20 11.4 °F 5.0 °F 30.25 in Calm     75% 0.00 in 0 W/m2
21:26 11.3 °F 5.2 °F 30.25 in Calm     76% 0.00 in 0 W/m2
21:32 11.1 °F 5.0 °F 30.25 in Calm     76% 0.00 in 0 W/m2
21:38 11.0 °F 5.2 °F 30.24 in Calm     77% 0.00 in 0 W/m2
21:44 10.8 °F 5.3 °F 30.25 in Calm     78% 0.00 in 0 W/m2
21:50 10.6 °F 5.1 °F 30.25 in Calm     78% 0.00 in 0 W/m2
21:56 10.5 °F 5.0 °F 30.25 in Calm     78% 0.00 in 0 W/m2
22:02 10.2 °F 5.0 °F 30.25 in Calm     79% 0.00 in 0 W/m2
22:08 10.0 °F 4.8 °F 30.26 in Calm     79% 0.00 in 0 W/m2
22:14 9.9 °F 4.7 °F 30.26 in Calm     79% 0.00 in 0 W/m2
22:20 9.7 °F 4.5 °F 30.26 in Calm     79% 0.00 in 0 W/m2
22:26 9.7 °F 4.8 °F 30.26 in Calm     80% 0.00 in 0 W/m2
22:32 9.7 °F 4.8 °F 30.26 in Calm     80% 0.00 in 0 W/m2
22:38 9.6 °F 4.7 °F 30.26 in Calm     80% 0.00 in 0 W/m2
22:44 9.5 °F 4.6 °F 30.26 in Calm     80% 0.00 in 0 W/m2
22:50 9.5 °F 4.8 °F 30.26 in Calm     81% 0.00 in 0 W/m2
22:56 9.5 °F 4.8 °F 30.26 in Calm     81% 0.00 in 0 W/m2
23:02 9.6 °F 4.9 °F 30.26 in Calm     81% 0.00 in 0 W/m2
23:08 9.9 °F 5.5 °F 30.26 in Calm     82% 0.00 in 0 W/m2
23:14 10.1 °F 5.7 °F 30.26 in Calm     82% 0.00 in 0 W/m2
23:20 10.2 °F 5.5 °F 30.26 in Calm     81% 0.00 in 0 W/m2
23:26 10.6 °F 5.9 °F 30.27 in Calm     81% 0.00 in 0 W/m2
23:32 10.8 °F 5.8 °F 30.27 in Calm   3.0 mph 80% 0.00 in 0 W/m2
23:38 11.8 °F 6.5 °F 30.28 in Calm   3.0 mph 79% 0.00 in 0 W/m2
23:44 12.6 °F 6.8 °F 30.28 in WSW 1.0 mph 3.0 mph 77% 0.00 in 0 W/m2
23:50 13.2 °F 6.8 °F 30.28 in WSW 1.0 mph 1.0 mph 75% 0.00 in 0 W/m2
23:56 13.6 °F 6.8 °F 30.28 in SSW 1.0 mph 1.0 mph 74% 0.00 in 0 W/m2
Country Meadow, Clay, NY, USA
Compliments of Weather Underground - 2 mb